Location: Praha
(50.0830°N, 14.4670°E)
Time: 16:37:48
(UTC+01:00)

ISS - Pass Details

Date: 08 January 2020
Orbit: 415 x 421 km, 51.6° (Epoch: 18 January)

Event Time Altitude Azimuth Distance (km) Brightness Sun altitude
Exits shadow 04:52:57 16° 114° (ESE) 1,183 -0.8 -28.9°
Drops below altitude 10° 04:53:39 10° 114° (ESE) 1,466 -0.2 -28.8°
Sets 04:55:48 0° 112° (ESE) 2,348 1.1 -28.5°
